Regional Weather Roundup
Issued by NWS Jackson, KY

Home | Current Version | Previous Version | Text Only | Print | Product List | Glossary Off
Versions: 1 2 3 4 5 6 7 8 9 10 11 12 13 14 15 16 17 18 19 20 21 22 23 24 25 26 27 28

000
ASUS43 KJKL 230710
RWRJKL

EAST KENTUCKY HOURLY WEATHER ROUNDUP
NATIONAL WEATHER SERVICE JACKSON KY
300 AM EDT FRI JUN 23 2017

NOTE: "FAIR" INDICATES FEW OR NO CLOUDS BELOW 12,000 FEET WITH
NO SIGNIFICANT WEATHER AND/OR OBSTRUCTIONS TO VISIBILITY.

* THESE REPORTS ARE NOT UNDER NWS QUALITY CONTROL AND MAY NOT
  REPORT WEATHER SUCH AS PRECIPITATION AND FOG.

KYZ079-080-083-085-087-088-110-112-115-119-120-230800
...EASTERN KENTUCKY...

CITY           SKY/WX    TMP DP  RH WIND       PRES   REMARKS
JACKSON        PTCLDY    70  68  93 CALM      29.92F
LONDON         CLOUDY    72  68  87 S6        29.92F
SOMERSET*      CLOUDY    72  72 100 S5        29.91F
MONTICELLO*    PTCLDY    75  71  87 S6        29.91F
WILLIAMSBURG*  CLOUDY    72  72 100 SE6       29.93F
MIDDLESBORO*   HVY RAIN  73  71  95 S6        29.97F
HARLAN APT*    CLOUDY    70  68  94 CALM      29.97F
PIKE CO APT*   CLOUDY    71  71 100 S7        29.94F
BIG SANDY APT* CLOUDY    71  70  96 S5        29.93F
MOREHEAD APT*  CLOUDY    70  68  94 S7        29.90F FOG
$$

KYZ035-036-041-042-044-050-067-078-099-230800
...CENTRAL KENTUCKY...

CITY           SKY/WX    TMP DP  RH WIND       PRES   REMARKS
MT STERLING*   CLOUDY    70  70 100 SW6       29.89F
FLEMING/MASON* MOCLDY    69  69  99 S9        29.88F
DANVILLE*      CLOUDY    72  70  94 SW7       29.90S
LEXINGTON      CLOUDY    73  70  90 S8        29.87F
FRANKFORT      CLOUDY    74  70  87 S13       29.83F
LOUISVILLE     CLOUDY    76  73  91 S10       29.81F
LEBANON*       CLOUDY    73  72  94 S12       29.86F
GLASGOW*       CLOUDY    75  74  96 S10G17    29.85F
BOWLING GREEN  CLOUDY    77  74  90 S9        29.84F
$$

KYZ091>093-OHZ055-061-077-WVZ005-015-034-035-042-230800
...SOUTHERN OHIO/WEST VIRGINIA...

CITY           SKY/WX    TMP DP  RH WIND       PRES   REMARKS
COVINGTON      CLOUDY    72  71  97 S13       29.82F
COLUMBUS       LGT RAIN  71  71 100 S12       29.82F FOG
DAYTON         FOG       70  69  97 S14       29.81F VSB 1
WILMINGTON     LGT RAIN  70  70 100 S7        29.83F
HUNTINGTON     CLOUDY    71  68  90 SW6       29.88F
CHARLESTON       N/A     71  67  87 S5        29.90F
PINEVILLE*     CLOUDY    68  67  96 MISG      30.03F
BECKLEY        CLOUDY    67  64  90 S5        30.02F
BLUEFIELD      CLOUDY    67  63  87 SW7       30.05F
LOGAN CO APT*  CLOUDY    70  68  94 CALM      29.95F
$$

VAZ002-007-008-TNZ017-027-036-066-071-230800
...SOUTHWEST VIRGINIA/EAST TENNESSEE...

CITY           SKY/WX    TMP DP  RH WIND       PRES   REMARKS
WISE*          CLOUDY    70  70 100 S12G18    30.04F
JONESVILLE*      N/A     70  70 100 CALM      30.00F
ABINGDON*      CLOUDY    71  70  98 CALM      30.03F
BRISTOL        CLOUDY    71  69  93 CALM      30.00F
MORRISTOWN*    CLOUDY    72  70  94 CALM      29.97F
SEVIERVILLE*   MOSUNNY   70  70 100 CALM      29.96F
KNOXVILLE      LGT RAIN  73  70  90 S3        29.95F
LAFOLLETTE*      N/A     73  72  94 S9        29.99F
OAK RIDGE      LGT RAIN  73  71  93 CALM      29.97F FOG
CROSSVILLE     LGT RAIN  72  70  93 VRB5      29.99F FOG
NASHVILLE      CLOUDY    77  73  87 S7        29.87F
$$

...KEY TO REMARKS...
VSB - VISIBILITY IN MILES
WCI - WIND CHILL INDEX
HX  - HEAT INDEX

$$




USA.gov is the U.S. government's official web portal to all federal, state and local government web resources and services.